Time,TemperatureF,DewpointF,PressureIn,WindDirection,WindDirectionDegrees,WindSpeedMPH,WindSpeedGustMPH,Humidity,HourlyPrecipIn,Conditions,Clouds,dailyrainin,SoftwareType,DateUTC
2013-10-17 00:01:00,57.7,52.6,29.96,South,181,0.0,0.0,83,0.00,,SKC,0.00,VWS V13.01,2013-10-17 04:01:00,
2013-10-17 00:02:00,57.5,52.4,29.95,South,181,0.6,0.6,83,0.00,,SKC,0.00,VWS V13.01,2013-10-17 04:02:00,
2013-10-17 00:07:00,57.3,52.5,29.95,South,181,1.7,1.7,84,0.00,,SKC,0.00,VWS V13.01,2013-10-17 04:07:00,
2013-10-17 00:12:00,57.3,52.5,29.94,South,181,0.0,0.0,84,0.00,,SKC,0.00,VWS V13.01,2013-10-17 04:12:00,
2013-10-17 00:18:00,57.2,52.4,29.94,SSW,204,2.0,2.0,84,0.00,,SKC,0.00,VWS V13.01,2013-10-17 04:18:00,
2013-10-17 00:23:00,57.0,52.2,29.93,South,181,0.0,0.0,84,0.00,,SKC,0.00,VWS V13.01,2013-10-17 04:23:00,
2013-10-17 00:28:00,57.0,52.2,29.94,South,181,4.0,4.0,84,0.00,,SKC,0.00,VWS V13.01,2013-10-17 04:28:00,
2013-10-17 00:33:00,57.0,52.2,29.94,South,181,0.0,0.0,84,0.00,,SKC,0.00,VWS V13.01,2013-10-17 04:33:00,
2013-10-17 00:38:00,57.3,52.8,29.95,SSW,204,0.0,0.0,85,0.00,,SKC,0.00,VWS V13.01,2013-10-17 04:38:00,
2013-10-17 00:43:00,57.3,52.8,29.95,South,181,0.0,0.0,85,0.00,,SKC,0.00,VWS V13.01,2013-10-17 04:43:00,
2013-10-17 00:48:00,57.3,52.8,29.95,South,181,1.7,1.7,85,0.00,,SKC,0.00,VWS V13.01,2013-10-17 04:48:00,
2013-10-17 00:53:00,57.3,52.8,29.95,South,181,0.6,0.6,85,0.00,,SKC,0.00,VWS V13.01,2013-10-17 04:53:00,
2013-10-17 00:58:00,57.5,53.0,29.95,South,181,1.5,1.5,85,0.00,,SKC,0.00,VWS V13.01,2013-10-17 04:58:00,
2013-10-17 01:03:00,57.7,53.2,29.95,South,181,0.0,0.0,85,0.00,,SKC,0.00,VWS V13.01,2013-10-17 05:03:00,
2013-10-17 01:08:00,57.7,53.2,29.95,South,181,0.0,0.0,85,0.00,,SKC,0.00,VWS V13.01,2013-10-17 05:08:00,
2013-10-17 01:13:00,57.9,53.4,29.95,South,181,3.8,3.8,85,0.00,,SKC,0.00,VWS V13.01,2013-10-17 05:13:00,
2013-10-17 01:18:00,57.9,53.4,29.94,SSE,158,10.0,10.0,85,0.00,,SKC,0.00,VWS V13.01,2013-10-17 05:18:00,
2013-10-17 01:23:00,58.1,53.6,29.94,SE,136,1.7,7.8,85,0.00,,SKC,0.00,VWS V13.01,2013-10-17 05:23:00,
2013-10-17 01:28:00,58.2,53.7,29.95,SSE,158,3.8,3.8,85,0.00,,SKC,0.00,VWS V13.01,2013-10-17 05:28:00,
2013-10-17 01:33:00,58.2,53.7,29.95,SSE,158,0.0,2.4,85,0.00,,SKC,0.00,VWS V13.01,2013-10-17 05:33:00,
2013-10-17 01:38:00,58.6,54.1,29.95,South,181,1.1,1.1,85,0.00,,SKC,0.00,VWS V13.01,2013-10-17 05:38:00,
2013-10-17 01:43:00,58.6,54.1,29.94,South,181,2.9,2.9,85,0.00,,SKC,0.00,VWS V13.01,2013-10-17 05:43:00,
2013-10-17 01:48:00,58.8,54.0,29.94,South,181,5.5,5.5,84,0.00,,SKC,0.00,VWS V13.01,2013-10-17 05:48:00,
2013-10-17 01:53:00,58.8,54.0,29.95,South,181,1.3,1.3,84,0.00,,SKC,0.00,VWS V13.01,2013-10-17 05:53:00,
2013-10-17 01:58:00,58.8,54.0,29.95,SSW,204,0.4,0.4,84,0.00,,SKC,0.00,VWS V13.01,2013-10-17 05:58:00,
2013-10-17 02:03:00,58.8,54.0,29.95,SSE,158,0.0,0.0,84,0.00,,SKC,0.00,VWS V13.01,2013-10-17 06:03:00,
2013-10-17 02:08:00,58.8,54.0,29.95,SSE,158,0.0,0.0,84,0.00,,SKC,0.00,VWS V13.01,2013-10-17 06:08:00,
2013-10-17 02:13:00,58.8,54.0,29.94,SSE,158,0.0,0.0,84,0.00,,SKC,0.00,VWS V13.01,2013-10-17 06:13:00,
2013-10-17 02:18:00,58.8,54.0,29.94,South,181,2.6,2.6,84,0.00,,SKC,0.00,VWS V13.01,2013-10-17 06:18:00,
2013-10-17 02:23:00,58.8,54.0,29.94,SSW,204,3.3,3.3,84,0.00,,SKC,0.00,VWS V13.01,2013-10-17 06:23:00,
2013-10-17 02:28:00,58.8,54.0,29.94,SSW,204,0.0,0.0,84,0.00,,SKC,0.00,VWS V13.01,2013-10-17 06:28:00,
2013-10-17 02:33:00,58.8,54.0,29.94,SSW,204,0.0,0.0,84,0.00,,SKC,0.00,VWS V13.01,2013-10-17 06:33:00,
2013-10-17 02:38:00,58.8,54.0,29.93,SSE,158,2.2,2.2,84,0.00,,SKC,0.00,VWS V13.01,2013-10-17 06:38:00,
2013-10-17 02:43:00,58.8,54.0,29.93,South,181,3.1,3.1,84,0.00,,SKC,0.00,VWS V13.01,2013-10-17 06:43:00,
2013-10-17 02:48:00,58.8,54.3,29.94,South,181,0.0,0.0,85,0.00,,SKC,0.00,VWS V13.01,2013-10-17 06:48:00,
2013-10-17 02:53:00,58.8,54.3,29.94,SSW,204,0.8,0.8,85,0.00,,SKC,0.00,VWS V13.01,2013-10-17 06:53:00,
2013-10-17 02:58:00,58.8,54.3,29.95,South,181,0.0,0.0,85,0.00,,SKC,0.00,VWS V13.01,2013-10-17 06:58:00,
2013-10-17 03:03:00,58.8,54.3,29.95,SSW,204,1.7,1.7,85,0.00,,SKC,0.00,VWS V13.01,2013-10-17 07:03:00,
2013-10-17 03:08:00,58.8,54.3,29.96,South,181,0.0,0.0,85,0.00,,SKC,0.00,VWS V13.01,2013-10-17 07:08:00,
2013-10-17 03:13:00,58.6,54.4,29.94,South,181,2.4,2.4,86,0.00,,SKC,0.00,VWS V13.01,2013-10-17 07:13:00,
2013-10-17 03:18:00,58.4,54.2,29.94,South,181,0.8,0.8,86,0.00,,SKC,0.00,VWS V13.01,2013-10-17 07:18:00,
2013-10-17 03:23:00,58.2,54.0,29.94,South,181,0.0,0.0,86,0.02,,SKC,0.02,VWS V13.01,2013-10-17 07:23:00,
2013-10-17 03:28:00,58.2,54.0,29.95,South,181,0.0,0.0,86,0.02,,SKC,0.02,VWS V13.01,2013-10-17 07:28:00,
2013-10-17 03:33:00,58.1,53.9,29.94,South,181,0.0,0.0,86,0.02,,SKC,0.02,VWS V13.01,2013-10-17 07:33:00,
2013-10-17 03:38:00,58.1,53.9,29.94,South,181,1.3,1.3,86,0.02,,SKC,0.02,VWS V13.01,2013-10-17 07:38:00,
2013-10-17 03:43:00,58.1,54.3,29.93,South,181,5.1,5.1,87,0.02,,SKC,0.02,VWS V13.01,2013-10-17 07:43:00,
2013-10-17 03:48:00,57.9,54.1,29.93,South,181,0.8,0.8,87,0.02,,SKC,0.02,VWS V13.01,2013-10-17 07:48:00,
2013-10-17 03:53:00,57.9,54.1,29.93,SSE,158,1.5,1.5,87,0.02,,SKC,0.02,VWS V13.01,2013-10-17 07:53:00,
2013-10-17 03:58:00,58.1,54.3,29.92,South,181,1.5,1.5,87,0.02,,SKC,0.02,VWS V13.01,2013-10-17 07:58:00,
2013-10-17 04:03:00,57.9,54.1,29.92,South,181,3.8,3.8,87,0.02,,SKC,0.02,VWS V13.01,2013-10-17 08:03:00,
2013-10-17 04:08:00,57.9,54.1,29.93,SSE,158,5.5,5.5,87,0.02,,SKC,0.02,VWS V13.01,2013-10-17 08:08:00,
2013-10-17 04:10:00,57.9,54.4,29.92,South,181,4.2,4.2,88,0.02,,SKC,0.02,VWS V13.01,2013-10-17 08:10:00,
2013-10-17 04:15:00,57.9,54.4,29.93,SSW,204,0.0,0.0,88,0.02,,SKC,0.02,VWS V13.01,2013-10-17 08:15:00,
2013-10-17 04:20:00,57.9,54.4,29.93,South,181,2.6,2.6,88,0.00,,SKC,0.02,VWS V13.01,2013-10-17 08:20:00,
2013-10-17 04:25:00,57.9,54.4,29.93,SSE,158,2.2,2.2,88,0.00,,SKC,0.02,VWS V13.01,2013-10-17 08:25:00,
2013-10-17 04:30:00,57.9,54.4,29.93,South,181,4.0,4.0,88,0.00,,SKC,0.02,VWS V13.01,2013-10-17 08:30:00,
2013-10-17 04:35:00,57.9,54.4,29.93,South,181,0.4,0.4,88,0.00,,SKC,0.02,VWS V13.01,2013-10-17 08:35:00,
2013-10-17 04:40:00,57.9,54.4,29.93,SSW,204,1.3,1.3,88,0.00,,SKC,0.02,VWS V13.01,2013-10-17 08:40:00,
2013-10-17 04:45:00,57.9,54.4,29.94,South,181,3.1,3.1,88,0.00,,SKC,0.02,VWS V13.01,2013-10-17 08:45:00,
2013-10-17 04:50:00,58.1,54.6,29.94,South,181,0.0,0.0,88,0.00,,SKC,0.02,VWS V13.01,2013-10-17 08:50:00,
2013-10-17 04:55:00,58.1,54.6,29.93,South,181,0.8,0.8,88,0.00,,SKC,0.02,VWS V13.01,2013-10-17 08:55:00,
2013-10-17 05:00:00,58.1,54.6,29.94,South,181,0.0,0.0,88,0.00,,SKC,0.02,VWS V13.01,2013-10-17 09:00:00,
2013-10-17 05:05:00,58.1,54.6,29.94,South,181,0.0,0.0,88,0.00,,SKC,0.02,VWS V13.01,2013-10-17 09:05:00,
2013-10-17 05:11:00,58.1,54.6,29.93,SSW,204,0.0,0.0,88,0.00,,SKC,0.02,VWS V13.01,2013-10-17 09:11:00,
2013-10-17 05:16:00,58.2,54.4,29.93,South,181,5.5,5.5,87,0.00,,SKC,0.02,VWS V13.01,2013-10-17 09:16:00,
2013-10-17 05:21:00,58.1,54.6,29.94,South,181,0.6,0.6,88,0.00,,SKC,0.02,VWS V13.01,2013-10-17 09:21:00,
2013-10-17 05:26:00,58.1,54.6,29.94,South,181,0.0,0.0,88,0.00,,SKC,0.02,VWS V13.01,2013-10-17 09:26:00,
2013-10-17 05:31:00,58.1,54.6,29.94,South,181,0.0,0.0,88,0.00,,SKC,0.02,VWS V13.01,2013-10-17 09:31:00,
2013-10-17 05:36:00,58.1,54.6,29.95,SSE,158,1.3,1.3,88,0.00,,SKC,0.02,VWS V13.01,2013-10-17 09:36:00,
2013-10-17 05:41:00,57.9,54.4,29.95,ENE,68,0.0,0.0,88,0.00,,SKC,0.02,VWS V13.01,2013-10-17 09:41:00,
2013-10-17 05:46:00,57.9,54.4,29.95,SSE,158,2.0,2.0,88,0.00,,SKC,0.02,VWS V13.01,2013-10-17 09:46:00,
2013-10-17 05:51:00,57.9,54.4,29.95,South,181,0.0,0.0,88,0.00,,SKC,0.02,VWS V13.01,2013-10-17 09:51:00,
2013-10-17 05:56:00,57.9,54.4,29.95,South,181,2.9,2.9,88,0.00,,SKC,0.02,VWS V13.01,2013-10-17 09:56:00,
2013-10-17 06:01:00,57.7,54.2,29.95,South,181,0.0,0.0,88,0.00,,SKC,0.02,VWS V13.01,2013-10-17 10:01:00,
2013-10-17 06:06:00,57.7,54.2,29.95,South,181,0.0,0.0,88,0.00,,SKC,0.02,VWS V13.01,2013-10-17 10:06:00,
2013-10-17 06:11:00,57.7,54.2,29.95,South,181,0.0,0.0,88,0.00,,SKC,0.02,VWS V13.01,2013-10-17 10:11:00,
2013-10-17 06:16:00,57.5,53.7,29.95,SSE,158,0.0,0.0,87,0.00,,SKC,0.02,VWS V13.01,2013-10-17 10:16:00,
2013-10-17 06:21:00,57.3,53.5,29.95,South,181,2.0,2.0,87,0.00,,SKC,0.02,VWS V13.01,2013-10-17 10:21:00,
2013-10-17 06:26:00,57.2,53.4,29.95,SSW,204,0.0,0.0,87,0.00,,SKC,0.02,VWS V13.01,2013-10-17 10:26:00,
2013-10-17 06:31:00,57.0,53.2,29.95,SE,136,0.0,0.0,87,0.00,,SKC,0.02,VWS V13.01,2013-10-17 10:31:00,
2013-10-17 06:36:00,57.0,53.2,29.95,ESE,114,1.1,1.1,87,0.00,,SKC,0.02,VWS V13.01,2013-10-17 10:36:00,
2013-10-17 06:41:00,56.8,53.3,29.95,NNW,338,0.0,0.0,88,0.00,,SKC,0.02,VWS V13.01,2013-10-17 10:41:00,
2013-10-17 06:46:00,56.6,53.1,29.95,SSE,158,0.0,0.0,88,0.00,,SKC,0.02,VWS V13.01,2013-10-17 10:46:00,
2013-10-17 06:51:00,56.4,52.9,29.96,SE,136,0.0,0.0,88,0.00,,SKC,0.02,VWS V13.01,2013-10-17 10:51:00,
2013-10-17 06:56:00,56.4,52.9,29.96,South,181,0.0,0.0,88,0.00,,SKC,0.02,VWS V13.01,2013-10-17 10:56:00,
2013-10-17 07:01:00,56.4,52.9,29.96,SE,136,0.0,0.6,88,0.00,,SKC,0.02,VWS V13.01,2013-10-17 11:01:00,
2013-10-17 07:06:00,56.3,52.8,29.96,South,181,2.0,2.0,88,0.00,,SKC,0.02,VWS V13.01,2013-10-17 11:06:00,
2013-10-17 07:11:00,56.3,52.8,29.96,ESE,114,0.8,0.8,88,0.00,,SKC,0.02,VWS V13.01,2013-10-17 11:11:00,
2013-10-17 07:16:00,56.1,52.6,29.96,SSE,158,0.0,0.0,88,0.00,,SKC,0.02,VWS V13.01,2013-10-17 11:16:00,
2013-10-17 07:21:00,56.1,52.6,29.97,South,181,0.0,0.0,88,0.00,,SKC,0.02,VWS V13.01,2013-10-17 11:21:00,
2013-10-17 07:26:00,56.1,52.6,29.97,ESE,114,0.0,0.0,88,0.00,,SKC,0.02,VWS V13.01,2013-10-17 11:26:00,
2013-10-17 07:31:00,56.1,52.6,29.97,South,181,0.0,0.0,88,0.00,,SKC,0.02,VWS V13.01,2013-10-17 11:31:00,
2013-10-17 07:36:00,55.9,52.4,29.97,South,181,0.0,0.0,88,0.00,,SKC,0.02,VWS V13.01,2013-10-17 11:36:00,
2013-10-17 07:41:00,55.9,52.4,29.98,South,181,0.0,0.0,88,0.00,,SKC,0.02,VWS V13.01,2013-10-17 11:41:00,
2013-10-17 07:46:00,55.9,52.7,29.98,South,181,0.0,0.0,89,0.00,,SKC,0.02,VWS V13.01,2013-10-17 11:46:00,
2013-10-17 07:51:00,55.9,52.7,29.98,South,181,0.0,0.0,89,0.00,,SKC,0.02,VWS V13.01,2013-10-17 11:51:00,
2013-10-17 07:56:00,55.9,52.7,29.98,South,181,0.0,0.0,89,0.00,,SKC,0.02,VWS V13.01,2013-10-17 11:56:00,
2013-10-17 08:01:00,56.1,52.9,29.98,South,181,0.0,0.0,89,0.00,,SKC,0.02,VWS V13.01,2013-10-17 12:01:00,
2013-10-17 08:06:00,56.1,52.9,29.98,South,181,0.0,0.0,89,0.00,,SKC,0.02,VWS V13.01,2013-10-17 12:06:00,
2013-10-17 08:11:00,56.1,52.9,29.98,South,181,0.0,0.0,89,0.00,,SKC,0.02,VWS V13.01,2013-10-17 12:11:00,
2013-10-17 08:16:00,55.9,52.7,29.97,South,181,0.0,0.0,89,0.00,,SKC,0.02,VWS V13.01,2013-10-17 12:16:00,
2013-10-17 08:21:00,55.9,52.7,29.97,South,181,0.0,0.0,89,0.00,,SKC,0.02,VWS V13.01,2013-10-17 12:21:00,
2013-10-17 08:26:00,55.9,52.7,29.97,South,181,0.0,0.0,89,0.00,,SKC,0.02,VWS V13.01,2013-10-17 12:26:00,
2013-10-17 08:31:00,56.1,52.9,29.97,South,181,0.0,0.0,89,0.00,,SKC,0.02,VWS V13.01,2013-10-17 12:31:00,
2013-10-17 08:36:00,56.6,53.4,29.97,South,181,0.0,0.0,89,0.00,,SKC,0.02,VWS V13.01,2013-10-17 12:36:00,
2013-10-17 08:41:00,57.0,53.8,29.97,South,181,0.0,0.0,89,0.00,,SKC,0.02,VWS V13.01,2013-10-17 12:41:00,
2013-10-17 08:46:00,57.5,54.3,29.97,South,181,0.0,0.0,89,0.00,,SKC,0.02,VWS V13.01,2013-10-17 12:46:00,
2013-10-17 08:51:00,57.9,54.7,29.97,South,181,0.6,0.6,89,0.00,,SKC,0.02,VWS V13.01,2013-10-17 12:51:00,
2013-10-17 08:56:00,58.1,54.6,29.98,South,181,0.0,0.0,88,0.00,,SKC,0.02,VWS V13.01,2013-10-17 12:56:00,
2013-10-17 09:01:00,58.4,54.9,29.97,SSE,158,1.1,1.1,88,0.00,,SKC,0.02,VWS V13.01,2013-10-17 13:01:00,
2013-10-17 09:06:00,58.8,55.3,29.98,SSE,158,0.0,0.0,88,0.00,,SKC,0.02,VWS V13.01,2013-10-17 13:06:00,
2013-10-17 09:11:00,58.8,55.0,29.98,SSE,158,0.0,0.0,87,0.00,,SKC,0.02,VWS V13.01,2013-10-17 13:11:00,
2013-10-17 09:16:00,58.8,55.0,29.98,South,181,0.0,0.0,87,0.00,,SKC,0.02,VWS V13.01,2013-10-17 13:16:00,
2013-10-17 09:21:00,59.1,54.9,29.98,South,181,0.0,0.0,86,0.00,,SKC,0.02,VWS V13.01,2013-10-17 13:21:00,
2013-10-17 09:26:00,59.1,54.9,29.98,South,181,0.0,0.0,86,0.00,,SKC,0.00,VWS V13.01,2013-10-17 13:26:00,
2013-10-17 09:31:00,59.5,55.0,29.98,South,181,0.2,0.2,85,0.00,,SKC,0.00,VWS V13.01,2013-10-17 13:31:00,
2013-10-17 09:36:00,59.7,55.2,29.98,SSE,158,0.0,0.0,85,0.00,,SKC,0.00,VWS V13.01,2013-10-17 13:36:00,
2013-10-17 09:41:00,60.0,55.5,29.98,SSE,158,0.2,0.2,85,0.00,,SKC,0.00,VWS V13.01,2013-10-17 13:41:00,
2013-10-17 09:46:00,60.6,55.8,29.98,ESE,114,0.0,0.0,84,0.00,,SKC,0.00,VWS V13.01,2013-10-17 13:46:00,
2013-10-17 09:51:00,61.7,56.8,29.98,SSE,158,0.0,0.0,84,0.00,,SKC,0.00,VWS V13.01,2013-10-17 13:51:00,
2013-10-17 09:56:00,62.2,57.0,29.98,SSW,204,0.0,0.0,83,0.00,,SKC,0.00,VWS V13.01,2013-10-17 13:56:00,
2013-10-17 10:01:00,62.4,56.8,29.98,South,181,0.0,0.0,82,0.00,,SKC,0.00,VWS V13.01,2013-10-17 14:01:00,
2013-10-17 10:06:00,62.9,57.3,29.98,South,181,0.0,0.0,82,0.00,,SKC,0.00,VWS V13.01,2013-10-17 14:06:00,
2013-10-17 10:11:00,63.1,57.2,29.98,ESE,114,0.0,0.0,81,0.00,,SKC,0.00,VWS V13.01,2013-10-17 14:11:00,
2013-10-17 10:16:00,63.3,57.0,29.98,ESE,114,2.0,2.0,80,0.00,,SKC,0.00,VWS V13.01,2013-10-17 14:16:00,
2013-10-17 10:21:00,63.3,57.0,29.98,NE,46,0.6,0.6,80,0.00,,SKC,0.00,VWS V13.01,2013-10-17 14:21:00,
2013-10-17 10:26:00,63.5,56.9,29.98,North,1,2.2,2.2,79,0.00,,SKC,0.00,VWS V13.01,2013-10-17 14:26:00,
2013-10-17 10:31:00,63.6,56.6,29.98,South,181,1.3,1.3,78,0.00,,SKC,0.00,VWS V13.01,2013-10-17 14:31:00,
2013-10-17 10:36:00,63.6,56.6,29.98,NE,46,1.1,1.1,78,0.00,,SKC,0.00,VWS V13.01,2013-10-17 14:36:00,
2013-10-17 10:41:00,63.6,56.3,29.98,SE,136,1.5,1.5,77,0.00,,SKC,0.00,VWS V13.01,2013-10-17 14:41:00,
2013-10-17 10:46:00,63.6,55.9,29.98,SSW,204,0.0,0.0,76,0.00,,SKC,0.00,VWS V13.01,2013-10-17 14:46:00,
2013-10-17 10:51:00,63.6,55.5,29.98,SSW,204,0.0,0.0,75,0.00,,SKC,0.00,VWS V13.01,2013-10-17 14:51:00,
2013-10-17 10:56:00,63.6,55.5,29.98,South,181,2.9,2.9,75,0.00,,SKC,0.00,VWS V13.01,2013-10-17 14:56:00,
2013-10-17 11:01:00,63.6,55.5,29.97,SSE,158,0.6,0.6,75,0.00,,SKC,0.00,VWS V13.01,2013-10-17 15:01:00,
2013-10-17 11:06:00,64.0,55.6,29.98,SE,136,0.4,0.4,74,0.00,,SKC,0.00,VWS V13.01,2013-10-17 15:06:00,
2013-10-17 11:11:00,64.0,55.6,29.98,SSW,204,0.0,0.0,74,0.00,,SKC,0.00,VWS V13.01,2013-10-17 15:11:00,
2013-10-17 11:16:00,64.0,55.2,29.98,SSE,158,0.4,0.4,73,0.00,,SKC,0.00,VWS V13.01,2013-10-17 15:16:00,
2013-10-17 11:21:00,63.5,54.7,29.97,South,181,1.1,1.1,73,0.00,,SKC,0.00,VWS V13.01,2013-10-17 15:21:00,
2013-10-17 11:26:00,63.1,54.3,29.97,SSE,158,0.2,0.2,73,0.00,,SKC,0.00,VWS V13.01,2013-10-17 15:26:00,
2013-10-17 11:31:00,62.7,53.9,29.97,NNE,24,2.0,2.0,73,0.00,,SKC,0.00,VWS V13.01,2013-10-17 15:31:00,
2013-10-17 11:36:00,62.6,54.2,29.97,South,181,0.0,0.0,74,0.00,,SKC,0.00,VWS V13.01,2013-10-17 15:36:00,
2013-10-17 11:41:00,62.6,54.2,29.97,South,181,0.0,0.0,74,0.00,,SKC,0.00,VWS V13.01,2013-10-17 15:41:00,
2013-10-17 11:46:00,62.7,54.3,29.96,SSE,158,0.0,0.0,74,0.00,,SKC,0.00,VWS V13.01,2013-10-17 15:46:00,
2013-10-17 11:51:00,62.7,53.9,29.96,SSE,158,0.0,0.0,73,0.00,,SKC,0.00,VWS V13.01,2013-10-17 15:51:00,
2013-10-17 11:56:00,62.4,53.6,29.96,South,181,1.3,1.3,73,0.00,,SKC,0.00,VWS V13.01,2013-10-17 15:56:00,
2013-10-17 12:01:00,62.4,53.6,29.96,South,181,0.0,0.0,73,0.00,,SKC,0.00,VWS V13.01,2013-10-17 16:01:00,
2013-10-17 12:06:00,63.1,54.3,29.96,South,181,2.0,2.0,73,0.00,,SKC,0.00,VWS V13.01,2013-10-17 16:06:00,
2013-10-17 12:11:00,63.1,54.3,29.96,South,181,0.0,0.0,73,0.00,,SKC,0.00,VWS V13.01,2013-10-17 16:11:00,
2013-10-17 12:16:00,63.5,54.7,29.96,South,181,0.0,0.0,73,0.00,,SKC,0.00,VWS V13.01,2013-10-17 16:16:00,
2013-10-17 12:21:00,64.0,54.8,29.95,South,181,0.0,0.0,72,0.00,,SKC,0.00,VWS V13.01,2013-10-17 16:21:00,
2013-10-17 12:26:00,64.0,54.4,29.95,South,181,0.0,0.0,71,0.00,,SKC,0.00,VWS V13.01,2013-10-17 16:26:00,
2013-10-17 12:31:00,64.2,54.6,29.95,South,181,3.1,3.1,71,0.00,,SKC,0.00,VWS V13.01,2013-10-17 16:31:00,
2013-10-17 12:36:00,64.2,54.2,29.95,ENE,68,0.0,0.0,70,0.00,,SKC,0.00,VWS V13.01,2013-10-17 16:36:00,
2013-10-17 12:41:00,64.5,54.5,29.95,ENE,68,1.1,1.1,70,0.00,,SKC,0.00,VWS V13.01,2013-10-17 16:41:00,
2013-10-17 12:46:00,64.9,54.5,29.95,SSW,204,0.8,0.8,69,0.00,,SKC,0.00,VWS V13.01,2013-10-17 16:46:00,
2013-10-17 12:51:00,64.9,54.5,29.95,NW,316,0.0,0.0,69,0.00,,SKC,0.00,VWS V13.01,2013-10-17 16:51:00,
2013-10-17 12:55:00,64.9,54.5,29.95,SSE,158,0.0,0.0,69,0.00,,SKC,0.00,VWS V13.01,2013-10-17 16:55:00,
2013-10-17 13:00:00,64.9,54.1,29.95,SSE,158,0.0,0.0,68,0.00,,SKC,0.00,VWS V13.01,2013-10-17 17:00:00,
2013-10-17 13:05:00,65.1,54.3,29.94,South,181,0.0,0.0,68,0.00,,SKC,0.00,VWS V13.01,2013-10-17 17:05:00,
2013-10-17 13:10:00,65.4,54.2,29.94,SSE,158,1.3,1.3,67,0.00,,SKC,0.00,VWS V13.01,2013-10-17 17:10:00,
2013-10-17 13:15:00,66.0,54.3,29.94,SSE,158,2.2,2.2,66,0.00,,SKC,0.00,VWS V13.01,2013-10-17 17:15:00,
2013-10-17 13:21:00,66.0,53.9,29.94,South,181,1.3,1.3,65,0.00,,SKC,0.00,VWS V13.01,2013-10-17 17:21:00,
2013-10-17 13:25:00,65.8,53.7,29.93,ESE,114,0.0,0.0,65,0.00,,SKC,0.00,VWS V13.01,2013-10-17 17:25:00,
2013-10-17 13:31:00,65.8,53.3,29.94,NNW,338,0.6,0.6,64,0.00,,SKC,0.00,VWS V13.01,2013-10-17 17:31:00,
2013-10-17 13:36:00,65.8,53.3,29.93,SSE,158,0.0,0.0,64,0.00,,SKC,0.00,VWS V13.01,2013-10-17 17:36:00,
2013-10-17 13:41:00,66.0,53.5,29.93,South,181,0.0,0.0,64,0.00,,SKC,0.00,VWS V13.01,2013-10-17 17:41:00,
2013-10-17 13:46:00,66.0,53.5,29.93,ENE,68,0.0,0.0,64,0.00,,SKC,0.00,VWS V13.01,2013-10-17 17:46:00,
2013-10-17 13:51:00,66.0,53.1,29.93,SSE,158,2.0,2.0,63,0.00,,SKC,0.00,VWS V13.01,2013-10-17 17:51:00,
2013-10-17 13:56:00,66.0,53.1,29.93,SSE,158,0.6,0.6,63,0.00,,SKC,0.00,VWS V13.01,2013-10-17 17:56:00,
2013-10-17 14:01:00,66.0,52.6,29.93,South,181,0.8,0.8,62,0.00,,SKC,0.00,VWS V13.01,2013-10-17 18:01:00,
2013-10-17 14:06:00,66.0,52.6,29.93,NNE,24,0.0,0.0,62,0.00,,SKC,0.00,VWS V13.01,2013-10-17 18:06:00,
2013-10-17 14:11:00,66.0,52.6,29.93,South,181,1.1,1.1,62,0.00,,SKC,0.00,VWS V13.01,2013-10-17 18:11:00,
2013-10-17 14:16:00,66.0,52.6,29.93,South,181,0.0,0.0,62,0.00,,SKC,0.00,VWS V13.01,2013-10-17 18:16:00,
2013-10-17 14:21:00,66.2,52.8,29.93,South,181,0.0,0.0,62,0.00,,SKC,0.00,VWS V13.01,2013-10-17 18:21:00,
2013-10-17 14:26:00,66.2,52.4,29.93,SE,136,0.0,0.0,61,0.00,,SKC,0.00,VWS V13.01,2013-10-17 18:26:00,
2013-10-17 14:31:00,66.0,52.2,29.93,SE,136,0.4,0.4,61,0.00,,SKC,0.00,VWS V13.01,2013-10-17 18:31:00,
2013-10-17 14:36:00,66.2,52.4,29.93,East,91,0.0,0.0,61,0.00,,SKC,0.00,VWS V13.01,2013-10-17 18:36:00,
2013-10-17 14:41:00,66.0,51.7,29.93,South,181,0.6,0.6,60,0.00,,SKC,0.00,VWS V13.01,2013-10-17 18:41:00,
2013-10-17 14:45:00,65.8,51.5,29.93,South,181,0.0,0.0,60,0.00,,SKC,0.00,VWS V13.01,2013-10-17 18:45:00,
2013-10-17 14:50:00,65.6,51.4,29.93,SE,136,0.0,0.0,60,0.00,,SKC,0.00,VWS V13.01,2013-10-17 18:50:00,
2013-10-17 14:55:00,65.6,51.4,29.93,South,181,0.0,0.0,60,0.00,,SKC,0.00,VWS V13.01,2013-10-17 18:55:00,
2013-10-17 15:01:00,65.8,51.5,29.93,SW,226,0.0,0.0,60,0.00,,SKC,0.00,VWS V13.01,2013-10-17 19:01:00,
2013-10-17 15:06:00,66.0,51.7,29.93,South,181,0.0,0.0,60,0.00,,SKC,0.00,VWS V13.01,2013-10-17 19:06:00,
2013-10-17 15:11:00,66.0,51.3,29.93,South,181,0.0,0.0,59,0.00,,SKC,0.00,VWS V13.01,2013-10-17 19:11:00,
2013-10-17 15:16:00,65.8,51.5,29.93,SSE,158,0.0,0.0,60,0.00,,SKC,0.00,VWS V13.01,2013-10-17 19:16:00,
2013-10-17 15:20:00,66.0,51.7,29.93,SE,136,0.0,0.0,60,0.00,,SKC,0.00,VWS V13.01,2013-10-17 19:20:00,
2013-10-17 15:25:00,66.2,52.4,29.92,SSE,158,0.0,0.0,61,0.00,,SKC,0.00,VWS V13.01,2013-10-17 19:25:00,
2013-10-17 15:30:00,66.5,52.2,29.92,South,181,0.0,0.0,60,0.00,,SKC,0.00,VWS V13.01,2013-10-17 19:30:00,
2013-10-17 15:31:00,66.7,52.4,29.92,South,181,2.0,2.0,60,0.00,,SKC,0.00,VWS V13.01,2013-10-17 19:31:00,
2013-10-17 15:36:00,67.1,51.8,29.92,SSE,158,2.9,2.9,58,0.00,,SKC,0.00,VWS V13.01,2013-10-17 19:36:00,
2013-10-17 15:41:00,67.2,51.9,29.91,NW,316,4.2,4.2,58,0.00,,SKC,0.00,VWS V13.01,2013-10-17 19:41:00,
2013-10-17 15:46:00,67.6,51.8,29.91,NW,316,0.0,0.0,57,0.00,,SKC,0.00,VWS V13.01,2013-10-17 19:46:00,
2013-10-17 15:51:00,67.6,51.8,29.92,WNW,294,1.3,1.3,57,0.00,,SKC,0.00,VWS V13.01,2013-10-17 19:51:00,
2013-10-17 15:56:00,67.6,51.8,29.91,NNE,24,0.0,0.0,57,0.00,,SKC,0.00,VWS V13.01,2013-10-17 19:56:00,
2013-10-17 16:01:00,67.2,51.5,29.91,NW,316,0.0,0.0,57,0.00,,SKC,0.00,VWS V13.01,2013-10-17 20:01:00,
2013-10-17 16:06:00,67.1,51.4,29.91,NW,316,0.0,0.0,57,0.00,,SKC,0.00,VWS V13.01,2013-10-17 20:06:00,
2013-10-17 16:11:00,66.7,51.0,29.92,NW,316,0.0,0.0,57,0.00,,SKC,0.00,VWS V13.01,2013-10-17 20:11:00,
2013-10-17 16:16:00,66.7,51.0,29.92,NW,316,0.0,0.0,57,0.00,,SKC,0.00,VWS V13.01,2013-10-17 20:16:00,
2013-10-17 16:21:00,66.5,50.8,29.91,NW,316,0.0,0.0,57,0.00,,SKC,0.00,VWS V13.01,2013-10-17 20:21:00,
2013-10-17 16:26:00,66.3,51.1,29.92,NW,316,0.0,0.0,58,0.00,,SKC,0.00,VWS V13.01,2013-10-17 20:26:00,
2013-10-17 16:31:00,66.3,51.1,29.92,NW,316,0.0,0.0,58,0.00,,SKC,0.00,VWS V13.01,2013-10-17 20:31:00,
2013-10-17 16:36:00,66.2,51.0,29.91,NW,316,0.0,0.0,58,0.00,,SKC,0.00,VWS V13.01,2013-10-17 20:36:00,
2013-10-17 16:41:00,66.0,51.3,29.91,NW,316,0.0,0.0,59,0.00,,SKC,0.00,VWS V13.01,2013-10-17 20:41:00,
2013-10-17 16:46:00,66.0,51.3,29.91,NW,316,0.0,0.0,59,0.00,,SKC,0.00,VWS V13.01,2013-10-17 20:46:00,
2013-10-17 16:51:00,65.8,51.1,29.91,NW,316,0.0,0.0,59,0.00,,SKC,0.00,VWS V13.01,2013-10-17 20:51:00,
2013-10-17 16:56:00,65.8,51.1,29.91,NW,316,0.0,0.0,59,0.00,,SKC,0.00,VWS V13.01,2013-10-17 20:56:00,
2013-10-17 17:01:00,65.8,51.1,29.91,NW,316,0.0,0.0,59,0.00,,SKC,0.00,VWS V13.01,2013-10-17 21:01:00,
2013-10-17 17:06:00,65.8,51.1,29.91,NW,316,0.0,0.0,59,0.00,,SKC,0.00,VWS V13.01,2013-10-17 21:06:00,
2013-10-17 17:11:00,65.6,50.9,29.91,NW,316,0.0,0.0,59,0.00,,SKC,0.00,VWS V13.01,2013-10-17 21:11:00,
2013-10-17 17:16:00,65.4,50.7,29.91,NW,316,0.0,0.0,59,0.00,,SKC,0.00,VWS V13.01,2013-10-17 21:16:00,
2013-10-17 17:21:00,65.4,50.2,29.91,NW,316,0.0,0.0,58,0.00,,SKC,0.00,VWS V13.01,2013-10-17 21:21:00,
2013-10-17 17:26:00,65.3,50.2,29.91,NW,316,0.0,0.0,58,0.00,,SKC,0.00,VWS V13.01,2013-10-17 21:26:00,
2013-10-17 17:31:00,65.1,50.0,29.91,NW,316,0.0,0.0,58,0.00,,SKC,0.00,VWS V13.01,2013-10-17 21:31:00,
2013-10-17 17:36:00,64.9,50.2,29.91,NW,316,0.0,0.0,59,0.00,,SKC,0.00,VWS V13.01,2013-10-17 21:36:00,
2013-10-17 17:41:00,64.5,49.9,29.91,NW,316,0.0,0.0,59,0.00,,SKC,0.00,VWS V13.01,2013-10-17 21:41:00,
2013-10-17 17:46:00,64.2,50.0,29.91,NW,316,0.0,0.0,60,0.00,,SKC,0.00,VWS V13.01,2013-10-17 21:46:00,
2013-10-17 17:51:00,64.0,49.8,29.91,NW,316,0.0,0.0,60,0.00,,SKC,0.00,VWS V13.01,2013-10-17 21:51:00,
2013-10-17 17:56:00,63.6,49.9,29.91,NW,316,0.0,0.0,61,0.00,,SKC,0.00,VWS V13.01,2013-10-17 21:56:00,
2013-10-17 18:01:00,62.9,49.7,29.91,NW,316,0.0,0.0,62,0.00,,SKC,0.00,VWS V13.01,2013-10-17 22:01:00,
2013-10-17 18:06:00,62.4,49.7,29.91,NW,316,0.0,0.0,63,0.00,,SKC,0.00,VWS V13.01,2013-10-17 22:06:00,
2013-10-17 18:11:00,61.7,49.0,29.90,NW,316,0.0,0.0,63,0.00,,SKC,0.00,VWS V13.01,2013-10-17 22:11:00,
2013-10-17 18:16:00,60.9,48.7,29.90,NW,316,0.0,0.0,64,0.00,,SKC,0.00,VWS V13.01,2013-10-17 22:16:00,
2013-10-17 18:21:00,60.6,48.8,29.91,NW,316,0.0,0.0,65,0.00,,SKC,0.00,VWS V13.01,2013-10-17 22:21:00,
2013-10-17 18:26:00,59.9,48.5,29.91,NW,316,0.0,0.0,66,0.00,,SKC,0.00,VWS V13.01,2013-10-17 22:26:00,
2013-10-17 18:31:00,59.5,48.2,29.91,NW,316,0.0,0.0,66,0.00,,SKC,0.00,VWS V13.01,2013-10-17 22:31:00,
2013-10-17 18:36:00,59.3,48.4,29.90,NW,316,0.0,0.0,67,0.00,,SKC,0.00,VWS V13.01,2013-10-17 22:36:00,
2013-10-17 18:41:00,58.8,48.3,29.90,NW,316,0.0,0.0,68,0.00,,SKC,0.00,VWS V13.01,2013-10-17 22:41:00,
2013-10-17 18:46:00,58.8,48.7,29.90,NW,316,0.0,0.0,69,0.00,,SKC,0.00,VWS V13.01,2013-10-17 22:46:00,
2013-10-17 18:51:00,58.2,48.1,29.90,NW,316,0.0,0.0,69,0.00,,SKC,0.00,VWS V13.01,2013-10-17 22:51:00,
2013-10-17 18:56:00,57.7,47.6,29.90,NW,316,0.0,0.0,69,0.00,,SKC,0.00,VWS V13.01,2013-10-17 22:56:00,
2013-10-17 19:01:00,57.3,47.6,29.90,NW,316,0.0,0.0,70,0.00,,SKC,0.00,VWS V13.01,2013-10-17 23:01:00,
2013-10-17 19:06:00,57.0,47.7,29.89,NW,316,0.0,0.0,71,0.00,,SKC,0.00,VWS V13.01,2013-10-17 23:06:00,
2013-10-17 19:11:00,56.6,47.3,29.90,NW,316,0.0,0.0,71,0.00,,SKC,0.00,VWS V13.01,2013-10-17 23:11:00,
2013-10-17 19:16:00,56.4,47.1,29.89,NW,316,0.0,0.0,71,0.00,,SKC,0.00,VWS V13.01,2013-10-17 23:16:00,
2013-10-17 19:21:00,56.3,47.4,29.89,NW,316,0.0,0.0,72,0.00,,SKC,0.00,VWS V13.01,2013-10-17 23:21:00,
2013-10-17 19:26:00,55.9,47.0,29.89,NW,316,0.0,0.0,72,0.00,,SKC,0.00,VWS V13.01,2013-10-17 23:26:00,
2013-10-17 19:31:00,55.7,46.8,29.89,NW,316,0.0,0.0,72,0.00,,SKC,0.00,VWS V13.01,2013-10-17 23:31:00,
2013-10-17 19:36:00,55.4,46.5,29.89,NW,316,0.0,0.0,72,0.00,,SKC,0.00,VWS V13.01,2013-10-17 23:36:00,
2013-10-17 19:41:00,55.2,46.7,29.89,NW,316,0.0,0.0,73,0.00,,SKC,0.00,VWS V13.01,2013-10-17 23:41:00,
2013-10-17 19:46:00,55.0,46.5,29.88,NW,316,0.0,0.0,73,0.00,,SKC,0.00,VWS V13.01,2013-10-17 23:46:00,
2013-10-17 19:51:00,54.8,46.7,29.88,NW,316,0.0,0.0,74,0.00,,SKC,0.00,VWS V13.01,2013-10-17 23:51:00,
2013-10-17 19:56:00,54.5,46.4,29.87,NW,316,0.0,0.0,74,0.00,,SKC,0.00,VWS V13.01,2013-10-17 23:56:00,
2013-10-17 20:01:00,53.9,46.2,29.88,NW,316,0.0,0.0,75,0.00,,SKC,0.00,VWS V13.01,2013-10-18 00:01:00,
2013-10-17 20:06:00,53.6,45.9,29.87,NW,316,0.0,0.0,75,0.00,,SKC,0.00,VWS V13.01,2013-10-18 00:06:00,
2013-10-17 20:11:00,53.4,45.7,29.87,NW,316,0.0,0.0,75,0.00,,SKC,0.00,VWS V13.01,2013-10-18 00:11:00,
2013-10-17 20:16:00,53.2,45.8,29.88,NW,316,0.0,0.0,76,0.00,,SKC,0.00,VWS V13.01,2013-10-18 00:16:00,
2013-10-17 20:21:00,52.8,45.5,29.87,NW,316,0.0,0.0,76,0.00,,SKC,0.00,VWS V13.01,2013-10-18 00:21:00,
2013-10-17 20:26:00,52.8,45.5,29.88,NW,316,0.0,0.0,76,0.00,,SKC,0.00,VWS V13.01,2013-10-18 00:26:00,
2013-10-17 20:31:00,52.3,45.0,29.88,NW,316,0.0,0.0,76,0.00,,SKC,0.00,VWS V13.01,2013-10-18 00:31:00,
2013-10-17 20:36:00,52.1,45.1,29.86,NW,316,0.0,0.0,77,0.00,,SKC,0.00,VWS V13.01,2013-10-18 00:36:00,
2013-10-17 20:41:00,51.9,44.9,29.87,NW,316,0.0,0.0,77,0.00,,SKC,0.00,VWS V13.01,2013-10-18 00:41:00,
2013-10-17 20:46:00,51.9,45.3,29.87,NW,316,0.0,0.0,78,0.00,,SKC,0.00,VWS V13.01,2013-10-18 00:46:00,
2013-10-17 20:51:00,52.1,45.5,29.87,NW,316,0.0,0.0,78,0.00,,SKC,0.00,VWS V13.01,2013-10-18 00:51:00,
2013-10-17 20:56:00,52.1,45.5,29.87,NW,316,0.0,0.0,78,0.00,,SKC,0.00,VWS V13.01,2013-10-18 00:56:00,
2013-10-17 21:01:00,52.3,45.7,29.87,NW,316,0.0,0.0,78,0.00,,SKC,0.00,VWS V13.01,2013-10-18 01:01:00,
2013-10-17 21:06:00,52.3,45.7,29.87,NW,316,0.0,0.0,78,0.00,,SKC,0.00,VWS V13.01,2013-10-18 01:06:00,
2013-10-17 21:11:00,52.3,46.0,29.86,NW,316,0.0,0.0,79,0.00,,SKC,0.00,VWS V13.01,2013-10-18 01:11:00,
2013-10-17 21:16:00,52.5,46.5,29.86,NW,316,0.0,0.0,80,0.00,,SKC,0.00,VWS V13.01,2013-10-18 01:16:00,
2013-10-17 21:21:00,52.5,46.5,29.86,NW,316,0.0,0.0,80,0.00,,SKC,0.00,VWS V13.01,2013-10-18 01:21:00,
2013-10-17 21:26:00,52.7,46.7,29.86,NW,316,0.0,0.0,80,0.00,,SKC,0.00,VWS V13.01,2013-10-18 01:26:00,
2013-10-17 21:31:00,52.8,47.1,29.85,NW,316,0.0,0.0,81,0.00,,SKC,0.00,VWS V13.01,2013-10-18 01:31:00,
2013-10-17 21:36:00,52.8,47.1,29.85,NW,316,0.0,0.0,81,0.00,,SKC,0.00,VWS V13.01,2013-10-18 01:36:00,
2013-10-17 21:41:00,53.2,47.2,29.85,NW,316,0.0,0.0,80,0.00,,SKC,0.00,VWS V13.01,2013-10-18 01:41:00,
2013-10-17 21:46:00,53.2,47.2,29.85,NW,316,0.0,0.0,80,0.00,,SKC,0.00,VWS V13.01,2013-10-18 01:46:00,
2013-10-17 21:51:00,53.4,47.4,29.85,NW,316,0.0,0.0,80,0.00,,SKC,0.00,VWS V13.01,2013-10-18 01:51:00,
2013-10-17 21:56:00,53.4,47.4,29.85,NW,316,0.0,0.0,80,0.00,,SKC,0.00,VWS V13.01,2013-10-18 01:56:00,
2013-10-17 22:01:00,53.4,47.4,29.85,NW,316,0.0,0.0,80,0.00,,SKC,0.00,VWS V13.01,2013-10-18 02:01:00,
2013-10-17 22:06:00,53.4,47.4,29.84,NW,316,0.0,0.0,80,0.00,,SKC,0.00,VWS V13.01,2013-10-18 02:06:00,
2013-10-17 22:11:00,53.4,47.4,29.84,NW,316,0.0,0.0,80,0.00,,SKC,0.00,VWS V13.01,2013-10-18 02:11:00,
2013-10-17 22:16:00,53.4,47.4,29.84,NW,316,0.0,0.0,80,0.00,,SKC,0.00,VWS V13.01,2013-10-18 02:16:00,
2013-10-17 22:21:00,53.4,47.4,29.84,NW,316,0.0,0.0,80,0.00,,SKC,0.00,VWS V13.01,2013-10-18 02:21:00,
2013-10-17 22:26:00,53.4,47.4,29.84,NW,316,0.0,0.0,80,0.00,,SKC,0.00,VWS V13.01,2013-10-18 02:26:00,
2013-10-17 22:31:00,53.6,47.6,29.84,NW,316,0.0,0.0,80,0.00,,SKC,0.00,VWS V13.01,2013-10-18 02:31:00,
2013-10-17 22:36:00,53.7,48.0,29.84,NW,316,0.0,0.0,81,0.00,,SKC,0.00,VWS V13.01,2013-10-18 02:36:00,
2013-10-17 22:41:00,53.7,48.0,29.84,NW,316,0.0,0.0,81,0.00,,SKC,0.00,VWS V13.01,2013-10-18 02:41:00,
2013-10-17 22:46:00,53.7,48.0,29.85,NW,316,0.0,0.0,81,0.00,,SKC,0.00,VWS V13.01,2013-10-18 02:46:00,
2013-10-17 22:51:00,53.9,48.2,29.85,NW,316,0.0,0.0,81,0.00,,SKC,0.00,VWS V13.01,2013-10-18 02:51:00,
2013-10-17 22:56:00,53.9,47.9,29.85,NW,316,0.0,0.0,80,0.00,,SKC,0.00,VWS V13.01,2013-10-18 02:56:00,
2013-10-17 23:01:00,53.9,48.2,29.85,NW,316,0.0,0.0,81,0.00,,SKC,0.00,VWS V13.01,2013-10-18 03:01:00,
2013-10-17 23:06:00,54.1,48.4,29.85,WNW,294,0.0,0.0,81,0.00,,SKC,0.00,VWS V13.01,2013-10-18 03:06:00,
2013-10-17 23:11:00,54.1,48.4,29.85,WNW,294,0.0,0.0,81,0.00,,SKC,0.00,VWS V13.01,2013-10-18 03:11:00,
2013-10-17 23:16:00,54.1,48.4,29.84,WNW,294,0.0,0.0,81,0.00,,SKC,0.00,VWS V13.01,2013-10-18 03:16:00,
2013-10-17 23:21:00,54.1,48.4,29.82,WNW,294,0.0,0.0,81,0.02,,SKC,0.02,VWS V13.01,2013-10-18 03:21:00,
2013-10-17 23:26:00,53.7,48.3,29.83,WNW,294,0.0,0.0,82,0.02,,SKC,0.02,VWS V13.01,2013-10-18 03:26:00,
2013-10-17 23:31:00,53.7,48.3,29.83,WNW,294,0.0,0.0,82,0.04,,SKC,0.04,VWS V13.01,2013-10-18 03:31:00,
2013-10-17 23:36:00,53.4,48.0,29.83,WNW,294,0.0,0.0,82,0.04,,SKC,0.04,VWS V13.01,2013-10-18 03:36:00,
2013-10-17 23:41:00,53.4,48.4,29.83,WNW,294,0.0,0.0,83,0.06,,SKC,0.06,VWS V13.01,2013-10-18 03:41:00,
2013-10-17 23:46:00,53.4,48.4,29.83,WNW,294,0.0,0.0,83,0.10,,SKC,0.10,VWS V13.01,2013-10-18 03:46:00,
2013-10-17 23:51:00,53.2,48.2,29.82,WNW,294,0.0,0.0,83,0.10,,SKC,0.10,VWS V13.01,2013-10-18 03:51:00,
2013-10-17 23:56:00,53.2,48.2,29.82,WNW,294,0.0,0.0,83,0.10,,SKC,0.10,VWS V13.01,2013-10-18 03:56:00,